owner,sensor,date,latitude,longitude,vertical_datum,sea_water_practical_salinity,qcFlag 
ENP,ioos.station.NOAA.NDBC:GBIF1:1,2019-08-01T00:00:00Z,25.3780,-81.0290,1.5,18.22,11111222 
ENP,ioos.station.NOAA.NDBC:GBIF1:1,2019-08-01T01:00:00Z,25.3780,-81.0290,1.5,16.6,11111222 
ENP,ioos.station.NOAA.NDBC:GBIF1:1,2019-08-01T02:00:00Z,25.3780,-81.0290,1.5,14.93,11111222 
ENP,ioos.station.NOAA.NDBC:GBIF1:1,2019-08-01T03:00:00Z,25.3780,-81.0290,1.5,13.67,11111222 
ENP,ioos.station.NOAA.NDBC:GBIF1:1,2019-08-01T04:00:00Z,25.3780,-81.0290,1.5,11.13,11111222 
ENP,ioos.station.NOAA.NDBC:GBIF1:1,2019-08-01T05:00:00Z,25.3780,-81.0290,1.5,8.09,11111222 
ENP,ioos.station.NOAA.NDBC:GBIF1:1,2019-08-01T06:00:00Z,25.3780,-81.0290,1.5,8.15,11111222 
ENP,ioos.station.NOAA.NDBC:GBIF1:1,2019-08-01T07:00:00Z,25.3780,-81.0290,1.5,11.65,11111222 
ENP,ioos.station.NOAA.NDBC:GBIF1:1,2019-08-01T08:00:00Z,25.3780,-81.0290,1.5,15.73,11111222 
ENP,ioos.station.NOAA.NDBC:GBIF1:1,2019-08-01T09:00:00Z,25.3780,-81.0290,1.5,18.7,11111222 
ENP,ioos.station.NOAA.NDBC:GBIF1:1,2019-08-01T10:00:00Z,25.3780,-81.0290,1.5,18.15,11111222 
ENP,ioos.station.NOAA.NDBC:GBIF1:1,2019-08-01T11:00:00Z,25.3780,-81.0290,1.5,14.73,11111222 
ENP,ioos.station.NOAA.NDBC:GBIF1:1,2019-08-01T12:00:00Z,25.3780,-81.0290,1.5,12.17,11111222 
ENP,ioos.station.NOAA.NDBC:GBIF1:1,2019-08-01T13:00:00Z,25.3780,-81.0290,1.5,10.55,11111222 
ENP,ioos.station.NOAA.NDBC:GBIF1:1,2019-08-01T14:00:00Z,25.3780,-81.0290,1.5,9.27,11111222 
ENP,ioos.station.NOAA.NDBC:GBIF1:1,2019-08-01T15:00:00Z,25.3780,-81.0290,1.5,6.2,11111222 
ENP,ioos.station.NOAA.NDBC:GBIF1:1,2019-08-01T16:00:00Z,25.3780,-81.0290,1.5,5.44,11111222 
ENP,ioos.station.NOAA.NDBC:GBIF1:1,2019-08-01T17:00:00Z,25.3780,-81.0290,1.5,6.32,11111222 
ENP,ioos.station.NOAA.NDBC:GBIF1:1,2019-08-01T18:00:00Z,25.3780,-81.0290,1.5,10.48,11111222 
ENP,ioos.station.NOAA.NDBC:GBIF1:1,2019-08-01T19:00:00Z,25.3780,-81.0290,1.5,17.54,11111222 
ENP,ioos.station.NOAA.NDBC:GBIF1:1,2019-08-01T20:00:00Z,25.3780,-81.0290,1.5,23.18,11111222 
ENP,ioos.station.NOAA.NDBC:GBIF1:1,2019-08-01T21:00:00Z,25.3780,-81.0290,1.5,25.35,11111222 
ENP,ioos.station.NOAA.NDBC:GBIF1:1,2019-08-01T22:00:00Z,25.3780,-81.0290,1.5,25.99,11111222 
ENP,ioos.station.NOAA.NDBC:GBIF1:1,2019-08-01T23:00:00Z,25.3780,-81.0290,1.5,23.46,11111222 
ENP,ioos.station.NOAA.NDBC:GBIF1:1,2019-08-02T00:00:00Z,25.3780,-81.0290,1.5,19.58,11111222 
ENP,ioos.station.NOAA.NDBC:GBIF1:1,2019-08-02T01:00:00Z,25.3780,-81.0290,1.5,17.0,11111222 
ENP,ioos.station.NOAA.NDBC:GBIF1:1,2019-08-02T02:00:00Z,25.3780,-81.0290,1.5,15.13,11111222 
ENP,ioos.station.NOAA.NDBC:GBIF1:1,2019-08-02T03:00:00Z,25.3780,-81.0290,1.5,13.54,11111222 
ENP,ioos.station.NOAA.NDBC:GBIF1:1,2019-08-02T04:00:00Z,25.3780,-81.0290,1.5,12.43,11111222 
ENP,ioos.station.NOAA.NDBC:GBIF1:1,2019-08-02T05:00:00Z,25.3780,-81.0290,1.5,9.97,11111222 
ENP,ioos.station.NOAA.NDBC:GBIF1:1,2019-08-02T06:00:00Z,25.3780,-81.0290,1.5,7.87,11111222 
ENP,ioos.station.NOAA.NDBC:GBIF1:1,2019-08-02T07:00:00Z,25.3780,-81.0290,1.5,11.0,11111222 
ENP,ioos.station.NOAA.NDBC:GBIF1:1,2019-08-02T08:00:00Z,25.3780,-81.0290,1.5,14.86,11111222 
ENP,ioos.station.NOAA.NDBC:GBIF1:1,2019-08-02T09:00:00Z,25.3780,-81.0290,1.5,18.29,11111222 
ENP,ioos.station.NOAA.NDBC:GBIF1:1,2019-08-02T10:00:00Z,25.3780,-81.0290,1.5,21.3,11111222 
ENP,ioos.station.NOAA.NDBC:GBIF1:1,2019-08-02T11:00:00Z,25.3780,-81.0290,1.5,22.2,11111222 
ENP,ioos.station.NOAA.NDBC:GBIF1:1,2019-08-02T12:00:00Z,25.3780,-81.0290,1.5,18.56,11111222 
ENP,ioos.station.NOAA.NDBC:GBIF1:1,2019-08-02T13:00:00Z,25.3780,-81.0290,1.5,16.0,11111222 
ENP,ioos.station.NOAA.NDBC:GBIF1:1,2019-08-02T14:00:00Z,25.3780,-81.0290,1.5,14.27,11111222 
ENP,ioos.station.NOAA.NDBC:GBIF1:1,2019-08-02T15:00:00Z,25.3780,-81.0290,1.5,12.17,11111222 
ENP,ioos.station.NOAA.NDBC:GBIF1:1,2019-08-02T16:00:00Z,25.3780,-81.0290,1.5,10.36,11111222 
ENP,ioos.station.NOAA.NDBC:GBIF1:1,2019-08-02T17:00:00Z,25.3780,-81.0290,1.5,10.87,11111222 
ENP,ioos.station.NOAA.NDBC:GBIF1:1,2019-08-02T18:00:00Z,25.3780,-81.0290,1.5,15.46,11111222 
ENP,ioos.station.NOAA.NDBC:GBIF1:1,2019-08-02T19:00:00Z,25.3780,-81.0290,1.5,20.75,11111222 
ENP,ioos.station.NOAA.NDBC:GBIF1:1,2019-08-02T20:00:00Z,25.3780,-81.0290,1.5,24.93,11111222 
ENP,ioos.station.NOAA.NDBC:GBIF1:1,2019-08-02T21:00:00Z,25.3780,-81.0290,1.5,25.85,11111222 
ENP,ioos.station.NOAA.NDBC:GBIF1:1,2019-08-02T22:00:00Z,25.3780,-81.0290,1.5,26.2,11111222 
ENP,ioos.station.NOAA.NDBC:GBIF1:1,2019-08-02T23:00:00Z,25.3780,-81.0290,1.5,24.02,11111222 
ENP,ioos.station.NOAA.NDBC:GBIF1:1,2019-08-03T00:00:00Z,25.3780,-81.0290,1.5,21.03,11111222 
ENP,ioos.station.NOAA.NDBC:GBIF1:1,2019-08-03T01:00:00Z,25.3780,-81.0290,1.5,20.89,11111222 
ENP,ioos.station.NOAA.NDBC:GBIF1:1,2019-08-03T02:00:00Z,25.3780,-81.0290,1.5,20.06,11111222 
ENP,ioos.station.NOAA.NDBC:GBIF1:1,2019-08-03T03:00:00Z,25.3780,-81.0290,1.5,18.29,11111222 
ENP,ioos.station.NOAA.NDBC:GBIF1:1,2019-08-03T04:00:00Z,25.3780,-81.0290,1.5,17.27,11111222 
ENP,ioos.station.NOAA.NDBC:GBIF1:1,2019-08-03T05:00:00Z,25.3780,-81.0290,1.5,15.6,11111222 
ENP,ioos.station.NOAA.NDBC:GBIF1:1,2019-08-03T06:00:00Z,25.3780,-81.0290,1.5,14.8,11111222 
ENP,ioos.station.NOAA.NDBC:GBIF1:1,2019-08-03T07:00:00Z,25.3780,-81.0290,1.5,14.46,11111222 
ENP,ioos.station.NOAA.NDBC:GBIF1:1,2019-08-03T08:00:00Z,25.3780,-81.0290,1.5,17.34,11111222 
ENP,ioos.station.NOAA.NDBC:GBIF1:1,2019-08-03T09:00:00Z,25.3780,-81.0290,1.5,20.13,11111222 
ENP,ioos.station.NOAA.NDBC:GBIF1:1,2019-08-03T10:00:00Z,25.3780,-81.0290,1.5,21.79,11111222 
ENP,ioos.station.NOAA.NDBC:GBIF1:1,2019-08-03T11:00:00Z,25.3780,-81.0290,1.5,23.46,11111222 
ENP,ioos.station.NOAA.NDBC:GBIF1:1,2019-08-03T12:00:00Z,25.3780,-81.0290,1.5,23.25,11111222 
ENP,ioos.station.NOAA.NDBC:GBIF1:1,2019-08-03T13:00:00Z,25.3780,-81.0290,1.5,20.48,11111222 
ENP,ioos.station.NOAA.NDBC:GBIF1:1,2019-08-03T14:00:00Z,25.3780,-81.0290,1.5,19.31,11111222 
ENP,ioos.station.NOAA.NDBC:GBIF1:1,2019-08-03T15:00:00Z,25.3780,-81.0290,1.5,18.42,11111222 
ENP,ioos.station.NOAA.NDBC:GBIF1:1,2019-08-03T16:00:00Z,25.3780,-81.0290,1.5,17.41,11111222 
ENP,ioos.station.NOAA.NDBC:GBIF1:1,2019-08-03T17:00:00Z,25.3780,-81.0290,1.5,16.47,11111222 
ENP,ioos.station.NOAA.NDBC:GBIF1:1,2019-08-03T18:00:00Z,25.3780,-81.0290,1.5,16.6,11111222 
ENP,ioos.station.NOAA.NDBC:GBIF1:1,2019-08-03T19:00:00Z,25.3780,-81.0290,1.5,19.11,11111222 
ENP,ioos.station.NOAA.NDBC:GBIF1:1,2019-08-03T20:00:00Z,25.3780,-81.0290,1.5,21.86,11111222 
ENP,ioos.station.NOAA.NDBC:GBIF1:1,2019-08-03T21:00:00Z,25.3780,-81.0290,1.5,24.86,11111222 
ENP,ioos.station.NOAA.NDBC:GBIF1:1,2019-08-03T22:00:00Z,25.3780,-81.0290,1.5,26.27,11111222 
ENP,ioos.station.NOAA.NDBC:GBIF1:1,2019-08-03T23:00:00Z,25.3780,-81.0290,1.5,26.63,11111222 
ENP,ioos.station.NOAA.NDBC:GBIF1:1,2019-08-04T00:00:00Z,25.3780,-81.0290,1.5,24.93,11111222 
ENP,ioos.station.NOAA.NDBC:GBIF1:1,2019-08-04T01:00:00Z,25.3780,-81.0290,1.5,22.9,11111222 
ENP,ioos.station.NOAA.NDBC:GBIF1:1,2019-08-04T02:00:00Z,25.3780,-81.0290,1.5,22.97,11111222 
ENP,ioos.station.NOAA.NDBC:GBIF1:1,2019-08-04T03:00:00Z,25.3780,-81.0290,1.5,21.99,11111222 
ENP,ioos.station.NOAA.NDBC:GBIF1:1,2019-08-04T04:00:00Z,25.3780,-81.0290,1.5,20.96,11111222 
ENP,ioos.station.NOAA.NDBC:GBIF1:1,2019-08-04T05:00:00Z,25.3780,-81.0290,1.5,19.58,11111222 
ENP,ioos.station.NOAA.NDBC:GBIF1:1,2019-08-04T06:00:00Z,25.3780,-81.0290,1.5,18.63,11111222 
ENP,ioos.station.NOAA.NDBC:GBIF1:1,2019-08-04T07:00:00Z,25.3780,-81.0290,1.5,17.0,11111222 
ENP,ioos.station.NOAA.NDBC:GBIF1:1,2019-08-04T08:00:00Z,25.3780,-81.0290,1.5,17.41,11111222 
ENP,ioos.station.NOAA.NDBC:GBIF1:1,2019-08-04T09:00:00Z,25.3780,-81.0290,1.5,20.41,11111222 
ENP,ioos.station.NOAA.NDBC:GBIF1:1,2019-08-04T10:00:00Z,25.3780,-81.0290,1.5,22.13,11111222 
ENP,ioos.station.NOAA.NDBC:GBIF1:1,2019-08-04T11:00:00Z,25.3780,-81.0290,1.5,24.51,11111222 
ENP,ioos.station.NOAA.NDBC:GBIF1:1,2019-08-04T12:00:00Z,25.3780,-81.0290,1.5,25.56,11111222 
ENP,ioos.station.NOAA.NDBC:GBIF1:1,2019-08-04T13:00:00Z,25.3780,-81.0290,1.5,23.74,11111222 
ENP,ioos.station.NOAA.NDBC:GBIF1:1,2019-08-04T14:00:00Z,25.3780,-81.0290,1.5,22.06,11111222 
ENP,ioos.station.NOAA.NDBC:GBIF1:1,2019-08-04T15:00:00Z,25.3780,-81.0290,1.5,20.89,11111222 
ENP,ioos.station.NOAA.NDBC:GBIF1:1,2019-08-04T16:00:00Z,25.3780,-81.0290,1.5,20.2,11111222 
ENP,ioos.station.NOAA.NDBC:GBIF1:1,2019-08-04T17:00:00Z,25.3780,-81.0290,1.5,19.17,11111222 
ENP,ioos.station.NOAA.NDBC:GBIF1:1,2019-08-04T18:00:00Z,25.3780,-81.0290,1.5,18.02,11111222 
ENP,ioos.station.NOAA.NDBC:GBIF1:1,2019-08-04T19:00:00Z,25.3780,-81.0290,1.5,17.61,11111222 
ENP,ioos.station.NOAA.NDBC:GBIF1:1,2019-08-04T20:00:00Z,25.3780,-81.0290,1.5,19.65,11111222 
ENP,ioos.station.NOAA.NDBC:GBIF1:1,2019-08-04T21:00:00Z,25.3780,-81.0290,1.5,22.2,11111222 
ENP,ioos.station.NOAA.NDBC:GBIF1:1,2019-08-04T22:00:00Z,25.3780,-81.0290,1.5,24.3,11111222 
ENP,ioos.station.NOAA.NDBC:GBIF1:1,2019-08-04T23:00:00Z,25.3780,-81.0290,1.5,25.99,11111222 
ENP,ioos.station.NOAA.NDBC:GBIF1:1,2019-08-05T00:00:00Z,25.3780,-81.0290,1.5,26.56,11111222 
ENP,ioos.station.NOAA.NDBC:GBIF1:1,2019-08-05T01:00:00Z,25.3780,-81.0290,1.5,24.23,11111222 
ENP,ioos.station.NOAA.NDBC:GBIF1:1,2019-08-05T02:00:00Z,25.3780,-81.0290,1.5,22.76,11111222 
ENP,ioos.station.NOAA.NDBC:GBIF1:1,2019-08-05T03:00:00Z,25.3780,-81.0290,1.5,21.79,11111222 
ENP,ioos.station.NOAA.NDBC:GBIF1:1,2019-08-05T04:00:00Z,25.3780,-81.0290,1.5,21.23,11111222 
ENP,ioos.station.NOAA.NDBC:GBIF1:1,2019-08-05T05:00:00Z,25.3780,-81.0290,1.5,19.79,11111222 
ENP,ioos.station.NOAA.NDBC:GBIF1:1,2019-08-05T06:00:00Z,25.3780,-81.0290,1.5,18.56,11111222 
ENP,ioos.station.NOAA.NDBC:GBIF1:1,2019-08-05T07:00:00Z,25.3780,-81.0290,1.5,15.93,11111222 
ENP,ioos.station.NOAA.NDBC:GBIF1:1,2019-08-05T14:00:00Z,25.3780,-81.0290,1.5,21.86,11111222 
ENP,ioos.station.NOAA.NDBC:GBIF1:1,2019-08-05T15:00:00Z,25.3780,-81.0290,1.5,20.82,11111222 
ENP,ioos.station.NOAA.NDBC:GBIF1:1,2019-08-05T16:00:00Z,25.3780,-81.0290,1.5,19.52,11111222 
ENP,ioos.station.NOAA.NDBC:GBIF1:1,2019-08-05T17:00:00Z,25.3780,-81.0290,1.5,18.42,11111222 
ENP,ioos.station.NOAA.NDBC:GBIF1:1,2019-08-05T18:00:00Z,25.3780,-81.0290,1.5,17.14,11111222 
ENP,ioos.station.NOAA.NDBC:GBIF1:1,2019-08-05T19:00:00Z,25.3780,-81.0290,1.5,14.33,11111222 
ENP,ioos.station.NOAA.NDBC:GBIF1:1,2019-08-05T20:00:00Z,25.3780,-81.0290,1.5,12.95,11111222 
ENP,ioos.station.NOAA.NDBC:GBIF1:1,2019-08-05T21:00:00Z,25.3780,-81.0290,1.5,14.66,11111222 
ENP,ioos.station.NOAA.NDBC:GBIF1:1,2019-08-05T22:00:00Z,25.3780,-81.0290,1.5,18.63,11111222 
ENP,ioos.station.NOAA.NDBC:GBIF1:1,2019-08-05T23:00:00Z,25.3780,-81.0290,1.5,21.93,11111222 
ENP,ioos.station.NOAA.NDBC:GBIF1:1,2019-08-06T00:00:00Z,25.3780,-81.0290,1.5,24.16,11111222 
ENP,ioos.station.NOAA.NDBC:GBIF1:1,2019-08-06T01:00:00Z,25.3780,-81.0290,1.5,24.3,11111222 
ENP,ioos.station.NOAA.NDBC:GBIF1:1,2019-08-06T02:00:00Z,25.3780,-81.0290,1.5,19.99,11111222 
ENP,ioos.station.NOAA.NDBC:GBIF1:1,2019-08-06T03:00:00Z,25.3780,-81.0290,1.5,18.22,11111222 
ENP,ioos.station.NOAA.NDBC:GBIF1:1,2019-08-06T04:00:00Z,25.3780,-81.0290,1.5,16.8,11111222 
ENP,ioos.station.NOAA.NDBC:GBIF1:1,2019-08-06T05:00:00Z,25.3780,-81.0290,1.5,15.6,11111222 
ENP,ioos.station.NOAA.NDBC:GBIF1:1,2019-08-06T06:00:00Z,25.3780,-81.0290,1.5,14.93,11111222 
ENP,ioos.station.NOAA.NDBC:GBIF1:1,2019-08-06T07:00:00Z,25.3780,-81.0290,1.5,12.49,11111222 
ENP,ioos.station.NOAA.NDBC:GBIF1:1,2019-08-06T08:00:00Z,25.3780,-81.0290,1.5,9.65,11111222 
ENP,ioos.station.NOAA.NDBC:GBIF1:1,2019-08-06T09:00:00Z,25.3780,-81.0290,1.5,9.59,11111222 
ENP,ioos.station.NOAA.NDBC:GBIF1:1,2019-08-06T10:00:00Z,25.3780,-81.0290,1.5,12.82,11111222 
ENP,ioos.station.NOAA.NDBC:GBIF1:1,2019-08-06T11:00:00Z,25.3780,-81.0290,1.5,16.33,11111222 
ENP,ioos.station.NOAA.NDBC:GBIF1:1,2019-08-06T12:00:00Z,25.3780,-81.0290,1.5,20.54,11111222 
ENP,ioos.station.NOAA.NDBC:GBIF1:1,2019-08-06T13:00:00Z,25.3780,-81.0290,1.5,23.18,11111222 
ENP,ioos.station.NOAA.NDBC:GBIF1:1,2019-08-06T14:00:00Z,25.3780,-81.0290,1.5,22.76,11111222 
ENP,ioos.station.NOAA.NDBC:GBIF1:1,2019-08-06T15:00:00Z,25.3780,-81.0290,1.5,20.54,11111222 
ENP,ioos.station.NOAA.NDBC:GBIF1:1,2019-08-06T16:00:00Z,25.3780,-81.0290,1.5,16.26,11111222 
ENP,ioos.station.NOAA.NDBC:GBIF1:1,2019-08-06T17:00:00Z,25.3780,-81.0290,1.5,14.66,11111222 
ENP,ioos.station.NOAA.NDBC:GBIF1:1,2019-08-06T18:00:00Z,25.3780,-81.0290,1.5,13.21,11111222 
ENP,ioos.station.NOAA.NDBC:GBIF1:1,2019-08-06T19:00:00Z,25.3780,-81.0290,1.5,11.84,11111222 
ENP,ioos.station.NOAA.NDBC:GBIF1:1,2019-08-06T20:00:00Z,25.3780,-81.0290,1.5,9.46,11111222 
ENP,ioos.station.NOAA.NDBC:GBIF1:1,2019-08-06T21:00:00Z,25.3780,-81.0290,1.5,7.94,11111222 
ENP,ioos.station.NOAA.NDBC:GBIF1:1,2019-08-06T22:00:00Z,25.3780,-81.0290,1.5,8.77,11111222 
ENP,ioos.station.NOAA.NDBC:GBIF1:1,2019-08-06T23:00:00Z,25.3780,-81.0290,1.5,12.62,11111222 
ENP,ioos.station.NOAA.NDBC:GBIF1:1,2019-08-07T00:00:00Z,25.3780,-81.0290,1.5,16.33,11111222 
ENP,ioos.station.NOAA.NDBC:GBIF1:1,2019-08-07T01:00:00Z,25.3780,-81.0290,1.5,19.86,11111222 
ENP,ioos.station.NOAA.NDBC:GBIF1:1,2019-08-07T02:00:00Z,25.3780,-81.0290,1.5,20.68,11111222 
ENP,ioos.station.NOAA.NDBC:GBIF1:1,2019-08-07T03:00:00Z,25.3780,-81.0290,1.5,16.67,11111222 
ENP,ioos.station.NOAA.NDBC:GBIF1:1,2019-08-07T04:00:00Z,25.3780,-81.0290,1.5,13.94,11111222 
ENP,ioos.station.NOAA.NDBC:GBIF1:1,2019-08-07T05:00:00Z,25.3780,-81.0290,1.5,12.49,11111222 
ENP,ioos.station.NOAA.NDBC:GBIF1:1,2019-08-07T06:00:00Z,25.3780,-81.0290,1.5,10.81,11111222 
ENP,ioos.station.NOAA.NDBC:GBIF1:1,2019-08-07T07:00:00Z,25.3780,-81.0290,1.5,9.4,11111222 
ENP,ioos.station.NOAA.NDBC:GBIF1:1,2019-08-07T08:00:00Z,25.3780,-81.0290,1.5,8.0,11111222 
ENP,ioos.station.NOAA.NDBC:GBIF1:1,2019-08-07T09:00:00Z,25.3780,-81.0290,1.5,6.9,11111222 
ENP,ioos.station.NOAA.NDBC:GBIF1:1,2019-08-07T10:00:00Z,25.3780,-81.0290,1.5,7.11,11111222 
ENP,ioos.station.NOAA.NDBC:GBIF1:1,2019-08-07T11:00:00Z,25.3780,-81.0290,1.5,9.53,11111222 
ENP,ioos.station.NOAA.NDBC:GBIF1:1,2019-08-07T12:00:00Z,25.3780,-81.0290,1.5,13.54,11111222 
ENP,ioos.station.NOAA.NDBC:GBIF1:1,2019-08-07T13:00:00Z,25.3780,-81.0290,1.5,18.97,11111222 
ENP,ioos.station.NOAA.NDBC:GBIF1:1,2019-08-07T14:00:00Z,25.3780,-81.0290,1.5,21.65,11111222 
ENP,ioos.station.NOAA.NDBC:GBIF1:1,2019-08-07T15:00:00Z,25.3780,-81.0290,1.5,20.96,11111222 
ENP,ioos.station.NOAA.NDBC:GBIF1:1,2019-08-07T16:00:00Z,25.3780,-81.0290,1.5,16.8,11111222 
ENP,ioos.station.NOAA.NDBC:GBIF1:1,2019-08-07T17:00:00Z,25.3780,-81.0290,1.5,13.15,11111222 
ENP,ioos.station.NOAA.NDBC:GBIF1:1,2019-08-07T18:00:00Z,25.3780,-81.0290,1.5,11.45,11111222 
ENP,ioos.station.NOAA.NDBC:GBIF1:1,2019-08-07T19:00:00Z,25.3780,-81.0290,1.5,10.68,11111222 
ENP,ioos.station.NOAA.NDBC:GBIF1:1,2019-08-07T20:00:00Z,25.3780,-81.0290,1.5,9.15,11111222 
ENP,ioos.station.NOAA.NDBC:GBIF1:1,2019-08-07T21:00:00Z,25.3780,-81.0290,1.5,8.64,11111222 
ENP,ioos.station.NOAA.NDBC:GBIF1:1,2019-08-07T22:00:00Z,25.3780,-81.0290,1.5,6.48,11111222 
ENP,ioos.station.NOAA.NDBC:GBIF1:1,2019-08-07T23:00:00Z,25.3780,-81.0290,1.5,6.19,11111222 
ENP,ioos.station.NOAA.NDBC:GBIF1:1,2019-08-08T00:00:00Z,25.3780,-81.0290,1.5,7.07,11111222 
ENP,ioos.station.NOAA.NDBC:GBIF1:1,2019-08-08T01:00:00Z,25.3780,-81.0290,1.5,9.84,11111222 
ENP,ioos.station.NOAA.NDBC:GBIF1:1,2019-08-08T02:00:00Z,25.3780,-81.0290,1.5,13.02,11111222 
ENP,ioos.station.NOAA.NDBC:GBIF1:1,2019-08-08T03:00:00Z,25.3780,-81.0290,1.5,15.2,11111222 
ENP,ioos.station.NOAA.NDBC:GBIF1:1,2019-08-08T04:00:00Z,25.3780,-81.0290,1.5,12.04,11111222 
ENP,ioos.station.NOAA.NDBC:GBIF1:1,2019-08-08T05:00:00Z,25.3780,-81.0290,1.5,10.1,11111222 
ENP,ioos.station.NOAA.NDBC:GBIF1:1,2019-08-08T06:00:00Z,25.3780,-81.0290,1.5,8.7,11111222 
ENP,ioos.station.NOAA.NDBC:GBIF1:1,2019-08-08T07:00:00Z,25.3780,-81.0290,1.5,7.83,11111222 
ENP,ioos.station.NOAA.NDBC:GBIF1:1,2019-08-08T08:00:00Z,25.3780,-81.0290,1.5,8.12,11111222 
ENP,ioos.station.NOAA.NDBC:GBIF1:1,2019-08-08T09:00:00Z,25.3780,-81.0290,1.5,5.98,11111222 
ENP,ioos.station.NOAA.NDBC:GBIF1:1,2019-08-08T10:00:00Z,25.3780,-81.0290,1.5,5.61,11111222 
ENP,ioos.station.NOAA.NDBC:GBIF1:1,2019-08-08T11:00:00Z,25.3780,-81.0290,1.5,5.82,11111222 
ENP,ioos.station.NOAA.NDBC:GBIF1:1,2019-08-08T12:00:00Z,25.3780,-81.0290,1.5,7.43,11111222 
ENP,ioos.station.NOAA.NDBC:GBIF1:1,2019-08-08T13:00:00Z,25.3780,-81.0290,1.5,11.0,11111222 
ENP,ioos.station.NOAA.NDBC:GBIF1:1,2019-08-08T14:00:00Z,25.3780,-81.0290,1.5,16.06,11111222 
ENP,ioos.station.NOAA.NDBC:GBIF1:1,2019-08-08T15:00:00Z,25.3780,-81.0290,1.5,18.29,11111222 
ENP,ioos.station.NOAA.NDBC:GBIF1:1,2019-08-08T16:00:00Z,25.3780,-81.0290,1.5,15.66,11111222 
ENP,ioos.station.NOAA.NDBC:GBIF1:1,2019-08-08T17:00:00Z,25.3780,-81.0290,1.5,12.04,11111222 
ENP,ioos.station.NOAA.NDBC:GBIF1:1,2019-08-08T18:00:00Z,25.3780,-81.0290,1.5,9.97,11111222 
ENP,ioos.station.NOAA.NDBC:GBIF1:1,2019-08-08T19:00:00Z,25.3780,-81.0290,1.5,8.64,11111222 
ENP,ioos.station.NOAA.NDBC:GBIF1:1,2019-08-08T20:00:00Z,25.3780,-81.0290,1.5,8.0,11111222 
ENP,ioos.station.NOAA.NDBC:GBIF1:1,2019-08-08T21:00:00Z,25.3780,-81.0290,1.5,7.45,11111222 
ENP,ioos.station.NOAA.NDBC:GBIF1:1,2019-08-08T22:00:00Z,25.3780,-81.0290,1.5,7.69,11111222 
ENP,ioos.station.NOAA.NDBC:GBIF1:1,2019-08-08T23:00:00Z,25.3780,-81.0290,1.5,5.43,11111222 
ENP,ioos.station.NOAA.NDBC:GBIF1:1,2019-08-09T00:00:00Z,25.3780,-81.0290,1.5,5.0,11111222 
ENP,ioos.station.NOAA.NDBC:GBIF1:1,2019-08-09T01:00:00Z,25.3780,-81.0290,1.5,5.02,11111222 
ENP,ioos.station.NOAA.NDBC:GBIF1:1,2019-08-09T02:00:00Z,25.3780,-81.0290,1.5,6.51,11111222 
ENP,ioos.station.NOAA.NDBC:GBIF1:1,2019-08-09T03:00:00Z,25.3780,-81.0290,1.5,7.42,11111222 
ENP,ioos.station.NOAA.NDBC:GBIF1:1,2019-08-09T04:00:00Z,25.3780,-81.0290,1.5,9.53,11111222 
ENP,ioos.station.NOAA.NDBC:GBIF1:1,2019-08-09T05:00:00Z,25.3780,-81.0290,1.5,8.89,11111222 
ENP,ioos.station.NOAA.NDBC:GBIF1:1,2019-08-09T06:00:00Z,25.3780,-81.0290,1.5,7.47,11111222 
ENP,ioos.station.NOAA.NDBC:GBIF1:1,2019-08-09T07:00:00Z,25.3780,-81.0290,1.5,6.99,11111222 
ENP,ioos.station.NOAA.NDBC:GBIF1:1,2019-08-09T08:00:00Z,25.3780,-81.0290,1.5,6.29,11111222 
ENP,ioos.station.NOAA.NDBC:GBIF1:1,2019-08-09T09:00:00Z,25.3780,-81.0290,1.5,6.2,11111222 
ENP,ioos.station.NOAA.NDBC:GBIF1:1,2019-08-09T10:00:00Z,25.3780,-81.0290,1.5,4.9,11111222 
ENP,ioos.station.NOAA.NDBC:GBIF1:1,2019-08-09T11:00:00Z,25.3780,-81.0290,1.5,4.69,11111222 
ENP,ioos.station.NOAA.NDBC:GBIF1:1,2019-08-09T12:00:00Z,25.3780,-81.0290,1.5,4.88,11111222 
ENP,ioos.station.NOAA.NDBC:GBIF1:1,2019-08-09T13:00:00Z,25.3780,-81.0290,1.5,5.96,11111222 
ENP,ioos.station.NOAA.NDBC:GBIF1:1,2019-08-09T14:00:00Z,25.3780,-81.0290,1.5,9.46,11111222 
ENP,ioos.station.NOAA.NDBC:GBIF1:1,2019-08-09T15:00:00Z,25.3780,-81.0290,1.5,14.07,11111222 
ENP,ioos.station.NOAA.NDBC:GBIF1:1,2019-08-09T16:00:00Z,25.3780,-81.0290,1.5,16.06,11111222 
ENP,ioos.station.NOAA.NDBC:GBIF1:1,2019-08-09T17:00:00Z,25.3780,-81.0290,1.5,16.4,11111222 
ENP,ioos.station.NOAA.NDBC:GBIF1:1,2019-08-09T18:00:00Z,25.3780,-81.0290,1.5,12.82,11111222 
ENP,ioos.station.NOAA.NDBC:GBIF1:1,2019-08-09T19:00:00Z,25.3780,-81.0290,1.5,9.72,11111222 
ENP,ioos.station.NOAA.NDBC:GBIF1:1,2019-08-09T20:00:00Z,25.3780,-81.0290,1.5,7.84,11111222 
ENP,ioos.station.NOAA.NDBC:GBIF1:1,2019-08-09T21:00:00Z,25.3780,-81.0290,1.5,7.1,11111222 
ENP,ioos.station.NOAA.NDBC:GBIF1:1,2019-08-09T22:00:00Z,25.3780,-81.0290,1.5,6.71,11111222 
ENP,ioos.station.NOAA.NDBC:GBIF1:1,2019-08-09T23:00:00Z,25.3780,-81.0290,1.5,6.61,11111222 
ENP,ioos.station.NOAA.NDBC:GBIF1:1,2019-08-10T00:00:00Z,25.3780,-81.0290,1.5,4.77,11111222 
ENP,ioos.station.NOAA.NDBC:GBIF1:1,2019-08-10T01:00:00Z,25.3780,-81.0290,1.5,4.4,11111222 
ENP,ioos.station.NOAA.NDBC:GBIF1:1,2019-08-10T02:00:00Z,25.3780,-81.0290,1.5,4.25,11111222 
ENP,ioos.station.NOAA.NDBC:GBIF1:1,2019-08-10T03:00:00Z,25.3780,-81.0290,1.5,4.89,11111222 
ENP,ioos.station.NOAA.NDBC:GBIF1:1,2019-08-10T04:00:00Z,25.3780,-81.0290,1.5,6.18,11111222 
ENP,ioos.station.NOAA.NDBC:GBIF1:1,2019-08-10T05:00:00Z,25.3780,-81.0290,1.5,8.3,11111222 
ENP,ioos.station.NOAA.NDBC:GBIF1:1,2019-08-10T06:00:00Z,25.3780,-81.0290,1.5,9.72,11111222 
ENP,ioos.station.NOAA.NDBC:GBIF1:1,2019-08-10T07:00:00Z,25.3780,-81.0290,1.5,7.4,11111222 
ENP,ioos.station.NOAA.NDBC:GBIF1:1,2019-08-10T08:00:00Z,25.3780,-81.0290,1.5,6.45,11111222 
ENP,ioos.station.NOAA.NDBC:GBIF1:1,2019-08-10T09:00:00Z,25.3780,-81.0290,1.5,6.12,11111222 
ENP,ioos.station.NOAA.NDBC:GBIF1:1,2019-08-10T10:00:00Z,25.3780,-81.0290,1.5,5.34,11111222 
ENP,ioos.station.NOAA.NDBC:GBIF1:1,2019-08-10T11:00:00Z,25.3780,-81.0290,1.5,4.16,11111222 
ENP,ioos.station.NOAA.NDBC:GBIF1:1,2019-08-10T12:00:00Z,25.3780,-81.0290,1.5,4.06,11111222 
ENP,ioos.station.NOAA.NDBC:GBIF1:1,2019-08-10T13:00:00Z,25.3780,-81.0290,1.5,4.08,11111222 
ENP,ioos.station.NOAA.NDBC:GBIF1:1,2019-08-10T14:00:00Z,25.3780,-81.0290,1.5,5.03,11111222 
ENP,ioos.station.NOAA.NDBC:GBIF1:1,2019-08-10T15:00:00Z,25.3780,-81.0290,1.5,8.24,11111222 
ENP,ioos.station.NOAA.NDBC:GBIF1:1,2019-08-10T16:00:00Z,25.3780,-81.0290,1.5,13.28,11111222 
ENP,ioos.station.NOAA.NDBC:GBIF1:1,2019-08-10T17:00:00Z,25.3780,-81.0290,1.5,16.06,11111222 
ENP,ioos.station.NOAA.NDBC:GBIF1:1,2019-08-10T18:00:00Z,25.3780,-81.0290,1.5,16.94,11111222 
ENP,ioos.station.NOAA.NDBC:GBIF1:1,2019-08-10T19:00:00Z,25.3780,-81.0290,1.5,13.21,11111222 
ENP,ioos.station.NOAA.NDBC:GBIF1:1,2019-08-10T20:00:00Z,25.3780,-81.0290,1.5,10.74,11111222 
ENP,ioos.station.NOAA.NDBC:GBIF1:1,2019-08-10T21:00:00Z,25.3780,-81.0290,1.5,8.45,11111222 
ENP,ioos.station.NOAA.NDBC:GBIF1:1,2019-08-10T22:00:00Z,25.3780,-81.0290,1.5,6.85,11111222 
ENP,ioos.station.NOAA.NDBC:GBIF1:1,2019-08-10T23:00:00Z,25.3780,-81.0290,1.5,6.2,11111222 
ENP,ioos.station.NOAA.NDBC:GBIF1:1,2019-08-11T00:00:00Z,25.3780,-81.0290,1.5,5.88,11111222 
ENP,ioos.station.NOAA.NDBC:GBIF1:1,2019-08-11T01:00:00Z,25.3780,-81.0290,1.5,4.35,11111222 
ENP,ioos.station.NOAA.NDBC:GBIF1:1,2019-08-11T02:00:00Z,25.3780,-81.0290,1.5,3.99,11111222 
ENP,ioos.station.NOAA.NDBC:GBIF1:1,2019-08-11T03:00:00Z,25.3780,-81.0290,1.5,3.79,11111222 
ENP,ioos.station.NOAA.NDBC:GBIF1:1,2019-08-11T04:00:00Z,25.3780,-81.0290,1.5,4.16,11111222 
ENP,ioos.station.NOAA.NDBC:GBIF1:1,2019-08-11T05:00:00Z,25.3780,-81.0290,1.5,5.52,11111222 
ENP,ioos.station.NOAA.NDBC:GBIF1:1,2019-08-11T06:00:00Z,25.3780,-81.0290,1.5,8.07,11111222 
ENP,ioos.station.NOAA.NDBC:GBIF1:1,2019-08-11T07:00:00Z,25.3780,-81.0290,1.5,9.91,11111222 
ENP,ioos.station.NOAA.NDBC:GBIF1:1,2019-08-11T08:00:00Z,25.3780,-81.0290,1.5,7.51,11111222 
ENP,ioos.station.NOAA.NDBC:GBIF1:1,2019-08-11T09:00:00Z,25.3780,-81.0290,1.5,6.05,11111222 
ENP,ioos.station.NOAA.NDBC:GBIF1:1,2019-08-11T10:00:00Z,25.3780,-81.0290,1.5,5.72,11111222 
ENP,ioos.station.NOAA.NDBC:GBIF1:1,2019-08-11T11:00:00Z,25.3780,-81.0290,1.5,5.15,11111222 
ENP,ioos.station.NOAA.NDBC:GBIF1:1,2019-08-11T12:00:00Z,25.3780,-81.0290,1.5,3.72,11111222 
ENP,ioos.station.NOAA.NDBC:GBIF1:1,2019-08-11T13:00:00Z,25.3780,-81.0290,1.5,3.51,11111222 
ENP,ioos.station.NOAA.NDBC:GBIF1:1,2019-08-11T14:00:00Z,25.3780,-81.0290,1.5,3.67,11111222 
ENP,ioos.station.NOAA.NDBC:GBIF1:1,2019-08-11T15:00:00Z,25.3780,-81.0290,1.5,5.26,11111222 
ENP,ioos.station.NOAA.NDBC:GBIF1:1,2019-08-11T16:00:00Z,25.3780,-81.0290,1.5,9.84,11111222 
ENP,ioos.station.NOAA.NDBC:GBIF1:1,2019-08-11T17:00:00Z,25.3780,-81.0290,1.5,14.53,11111222 
ENP,ioos.station.NOAA.NDBC:GBIF1:1,2019-08-11T18:00:00Z,25.3780,-81.0290,1.5,17.34,11111222 
ENP,ioos.station.NOAA.NDBC:GBIF1:1,2019-08-11T19:00:00Z,25.3780,-81.0290,1.5,18.36,11111222 
ENP,ioos.station.NOAA.NDBC:GBIF1:1,2019-08-11T20:00:00Z,25.3780,-81.0290,1.5,14.46,11111222 
ENP,ioos.station.NOAA.NDBC:GBIF1:1,2019-08-11T21:00:00Z,25.3780,-81.0290,1.5,13.47,11111222 
ENP,ioos.station.NOAA.NDBC:GBIF1:1,2019-08-11T22:00:00Z,25.3780,-81.0290,1.5,10.48,11111222 
ENP,ioos.station.NOAA.NDBC:GBIF1:1,2019-08-11T23:00:00Z,25.3780,-81.0290,1.5,7.98,11111222 